When you browse on this site, cookies collect data to enhance your experience and personalize the content and advertising you see.
Visit our Privacy Policy to learn more. By continuing to use the site, you agree to this use of cookies and data.

Hourly Weather Brasília

Today, 7 August, Friday

Time Temperature Precipitation Wind Pressure Humidity
00:00 +15°C° 0 mm 2 mps 669 mmHg 54%
01:00 +13°C° 0 mm 3 mps 669 mmHg 56%
02:00 +13°C° 0 mm 3 mps 669 mmHg 58%
03:00 +12°C° 0 mm 3 mps 668 mmHg 61%
04:00 +12°C° 0 mm 3 mps 668 mmHg 66%
05:00 +12°C° 0 mm 3 mps 668 mmHg 71%
06:00 +11°C° 0 mm 3 mps 669 mmHg 76%
07:00 +13°C° 0 mm 4 mps 669 mmHg 72%
08:00 +15°C° 0 mm 5 mps 670 mmHg 68%
09:00 +17°C° 0 mm 5 mps 671 mmHg 64%
10:00 +20°C° 0 mm 5 mps 671 mmHg 57%
11:00 +21°C° 0 mm 5 mps 671 mmHg 51%
12:00 +23°C° 0 mm 5 mps 672 mmHg 44%
13:00 +23°C° 0 mm 5 mps 671 mmHg 44%
14:00 +23°C° 0 mm 5 mps 670 mmHg 43%
15:00 +23°C° 0 mm 4 mps 669 mmHg 43%
16:00 +22°C° 0 mm 4 mps 669 mmHg 45%
17:00 +21°C° 0 mm 3 mps 669 mmHg 48%
18:00 +20°C° 0 mm 3 mps 669 mmHg 50%
19:00 +19°C° 0 mm 3 mps 670 mmHg 54%
20:00 +19°C° 0 mm 3 mps 670 mmHg 57%
21:00 +18°C° 0 mm 3 mps 670 mmHg 61%
22:00 +17°C° 0 mm 3 mps 670 mmHg 64%
23:00 +16°C° 0 mm 3 mps 669 mmHg 67%

Tomorrow, 8 August, Saturday

Time Temperature Precipitation Wind Pressure Humidity
00:00 +14°C° 0 mm 3 mps 669 mmHg 70%
01:00 +15°C° 0 mm 2 mps 669 mmHg 72%
02:00 +14°C° 0 mm 2 mps 668 mmHg 74%
03:00 +14°C° 0 mm 2 mps 668 mmHg 76%
04:00 +13°C° 0 mm 3 mps 668 mmHg 78%
05:00 +12°C° 0 mm 3 mps 668 mmHg 80%
06:00 +12°C° 0 mm 3 mps 668 mmHg 83%
07:00 +14°C° 0 mm 4 mps 669 mmHg 75%
08:00 +15°C° 0 mm 4 mps 670 mmHg 68%
09:00 +17°C° 0 mm 5 mps 671 mmHg 60%
10:00 +20°C° 0 mm 5 mps 671 mmHg 53%
11:00 +22°C° 0 mm 4 mps 671 mmHg 46%
12:00 +25°C° 0 mm 4 mps 671 mmHg 39%
13:00 +25°C° 0 mm 4 mps 671 mmHg 36%
14:00 +26°C° 0 mm 3 mps 670 mmHg 34%
15:00 +27°C° 0 mm 3 mps 669 mmHg 31%
16:00 +25°C° 0 mm 2 mps 669 mmHg 34%
17:00 +24°C° 0 mm 2 mps 669 mmHg 38%
18:00 +21°C° 0 mm 2 mps 668 mmHg 41%
19:00 +20°C° 0 mm 2 mps 668 mmHg 44%
20:00 +19°C° 0 mm 2 mps 668 mmHg 47%
21:00 +17°C° 0 mm 2 mps 669 mmHg 50%
22:00 +17°C° 0 mm 2 mps 669 mmHg 51%
23:00 +16°C° 0 mm 2 mps 668 mmHg 52%

Day after tomorrow, 9 August, Sunday

Time Temperature Precipitation Wind Pressure Humidity
00:00 +16°C° 0 mm 2 mps 668 mmHg 52%
01:00 +15°C° 0 mm 2 mps 668 mmHg 53%
02:00 +15°C° 0 mm 2 mps 668 mmHg 53%
03:00 +15°C° 0 mm 2 mps 667 mmHg 54%
04:00 +14°C° 0 mm 2 mps 667 mmHg 59%
05:00 +14°C° 0 mm 2 mps 667 mmHg 64%
06:00 +12°C° 0 mm 3 mps 668 mmHg 69%
07:00 +14°C° 0 mm 3 mps 668 mmHg 66%
08:00 +17°C° 0 mm 4 mps 669 mmHg 62%
09:00 +19°C° 0 mm 4 mps 670 mmHg 59%
10:00 +21°C° 0 mm 4 mps 670 mmHg 51%
11:00 +23°C° 0 mm 4 mps 670 mmHg 44%
12:00 +26°C° 0 mm 3 mps 670 mmHg 36%
13:00 +26°C° 0 mm 3 mps 670 mmHg 34%
14:00 +27°C° 0 mm 3 mps 669 mmHg 31%
15:00 +28°C° 0 mm 2 mps 668 mmHg 28%
16:00 +26°C° 0 mm 2 mps 668 mmHg 32%
17:00 +25°C° 0 mm 2 mps 667 mmHg 35%
18:00 +23°C° 0 mm 2 mps 667 mmHg 38%
19:00 +21°C° 0 mm 2 mps 667 mmHg 41%
20:00 +20°C° 0 mm 2 mps 667 mmHg 43%
21:00 +18°C° 0 mm 2 mps 667 mmHg 45%
22:00 +18°C° 0 mm 2 mps 667 mmHg 47%
23:00 +17°C° 0 mm 2 mps 667 mmHg 48%

10 August, Monday

Time Temperature Precipitation Wind Pressure Humidity
00:00 +17°C° 0 mm 2 mps 667 mmHg 50%
01:00 +17°C° 0 mm 2 mps 667 mmHg 53%
02:00 +16°C° 0 mm 2 mps 666 mmHg 56%
03:00 +16°C° 0 mm 3 mps 666 mmHg 59%
04:00 +14°C° 0 mm 3 mps 666 mmHg 63%
05:00 +14°C° 0 mm 3 mps 666 mmHg 66%
06:00 +14°C° 0 mm 3 mps 666 mmHg 70%
07:00 +15°C° 0 mm 4 mps 667 mmHg 66%
08:00 +18°C° 0 mm 4 mps 668 mmHg 62%
09:00 +20°C° 0 mm 5 mps 669 mmHg 58%
10:00 +22°C° 0 mm 4 mps 669 mmHg 50%
11:00 +25°C° 0 mm 3 mps 669 mmHg 41%
12:00 +28°C° 0 mm 2 mps 669 mmHg 32%
13:00 +29°C° 0 mm 2 mps 668 mmHg 30%
14:00 +30°C° 0 mm 2 mps 668 mmHg 27%
15:00 +30°C° 0 mm 1 mps 667 mmHg 24%
16:00 +28°C° 0 mm 1 mps 667 mmHg 27%
17:00 +26°C° 0 mm 1 mps 666 mmHg 31%
18:00 +25°C° 0 mm 1 mps 666 mmHg 34%
19:00 +23°C° 0 mm 2 mps 666 mmHg 37%
20:00 +21°C° 0 mm 2 mps 666 mmHg 40%
21:00 +20°C° 0 mm 2 mps 666 mmHg 43%
22:00 +19°C° 0 mm 2 mps 666 mmHg 44%
23:00 +19°C° 0 mm 2 mps 666 mmHg 45%

11 August, Tuesday

Time Temperature Precipitation Wind Pressure Humidity
00:00 +18°C° 0 mm 2 mps 666 mmHg 46%
01:00 +18°C° 0 mm 2 mps 665 mmHg 47%
02:00 +18°C° 0 mm 2 mps 665 mmHg 47%
03:00 +17°C° 0 mm 2 mps 665 mmHg 47%
04:00 +17°C° 0 mm 2 mps 665 mmHg 49%
05:00 +16°C° 0 mm 2 mps 665 mmHg 50%
06:00 +16°C° 0 mm 2 mps 665 mmHg 51%
07:00 +18°C° 0 mm 3 mps 666 mmHg 47%
08:00 +19°C° 0 mm 3 mps 667 mmHg 43%
09:00 +21°C° 0 mm 4 mps 668 mmHg 38%
10:00 +25°C° 0 mm 3 mps 668 mmHg 34%
11:00 +27°C° 0 mm 3 mps 668 mmHg 30%
12:00 +29°C° 0 mm 2 mps 668 mmHg 26%
13:00 +30°C° 0 mm 2 mps 668 mmHg 24%
14:00 +31°C° 0 mm 2 mps 667 mmHg 22%
15:00 +32°C° 0 mm 1 mps 667 mmHg 21%
16:00 +30°C° 0 mm 1 mps 666 mmHg 24%
17:00 +28°C° 0 mm 1 mps 666 mmHg 26%
18:00 +26°C° 0 mm 1 mps 665 mmHg 29%
19:00 +24°C° 0 mm 2 mps 665 mmHg 32%
20:00 +23°C° 0 mm 2 mps 665 mmHg 35%
21:00 +21°C° 0 mm 2 mps 665 mmHg 38%
22:00 +20°C° 0 mm 2 mps 665 mmHg 39%
23:00 +20°C° 0 mm 2 mps 665 mmHg 40%

12 August, Wednesday

Time Temperature Precipitation Wind Pressure Humidity
00:00 +19°C° 0 mm 3 mps 665 mmHg 41%
01:00 +19°C° 0 mm 2 mps 665 mmHg 42%
02:00 +18°C° 0 mm 2 mps 665 mmHg 43%
03:00 +18°C° 0 mm 2 mps 664 mmHg 44%
04:00 +17°C° 0 mm 2 mps 664 mmHg 45%
05:00 +17°C° 0 mm 2 mps 664 mmHg 45%
06:00 +16°C° 0 mm 2 mps 664 mmHg 46%
07:00 +19°C° 0 mm 3 mps 665 mmHg 42%
08:00 +21°C° 0 mm 4 mps 666 mmHg 39%
09:00 +23°C° 0 mm 5 mps 667 mmHg 35%
10:00 +26°C° 0 mm 4 mps 667 mmHg 31%
11:00 +28°C° 0 mm 4 mps 667 mmHg 27%
12:00 +30°C° 0 mm 3 mps 667 mmHg 24%
13:00 +31°C° 0 mm 2 mps 667 mmHg 22%
14:00 +31°C° 0 mm 2 mps 666 mmHg 20%
15:00 +32°C° 0 mm 1 mps 665 mmHg 19%
16:00 +30°C° 0 mm 2 mps 665 mmHg 22%
17:00 +28°C° 0 mm 2 mps 664 mmHg 25%
18:00 +26°C° 0 mm 2 mps 664 mmHg 27%
19:00 +25°C° 0 mm 2 mps 664 mmHg 30%
20:00 +24°C° 0 mm 2 mps 664 mmHg 33%
21:00 +21°C° 0 mm 3 mps 664 mmHg 35%
22:00 +21°C° 0 mm 3 mps 664 mmHg 36%
23:00 +20°C° 0 mm 3 mps 664 mmHg 38%
Show more